Location: Street
(51.1247°N, 2.7429°W)
Time: 10:15:09
(UTC+00:00)

Tiros 1 - Pass Details

Date: 01 December 2020
Orbit: 630 x 663 km, 48.4° (Epoch: 21 January)

Event Time Altitude Azimuth Distance (km) Brightness Sun altitude
Rises 21:06:50 0° 276° (W) 2,982 11.2 -45.6°
Enters shadow 21:07:49 - 270° (W) 2,690 10.9 -45.7°
Reaches altitude 10° 21:10:37 10° 246° (WSW) 2,057 - -46.1°
Maximum altitude 21:12:25 12° 223° (SW) 1,915 - -46.4°
Drops below altitude 10° 21:14:12 10° 201° (SSW) 2,045 - -46.6°
Sets 21:17:57 0° 171° (S) 2,940 - -47.2°
